Lid_Strength_Index
13 13 13 14 13 13 12 11 12 12 12 11 12 11 11 11 10 9 9 8 8 8 7 6 5 4 2 2 2 3 3 3
13 13 13 14 14 14 13 12 11 12 12 12 12 12 12 12 11 11 9 9 8 8 7 6 6 4 3 3 3 3 4 4
14 14 14 14 15 14 14 12 12 11 10 12 12 12 12 12 12 11 10 9 8 8 8 8 7 5 4 4 4 4 5 6
15 14 14 14 15 15 14 13 12 11 10 10 11 11 12 12 12 11 11 10 10 9 10 9 8 8 7 7 8 8 7 7
15 15 15 15 15 15 15 14 13 12 11 10 10 11 11 11 11 11 11 11 11 10 10 10 9 9 9 9 10 10 10 10
18 18 18 16 16 15 15 14 13 13 12 11 10 10 10 10 10 10 10 10 10 10 10 10 9 9 9 9 10 10 11 12
17 17 17 17 16 16 17 15 13 13 13 12 11 11 11 11 10 10 10 10 11 11 11 10 9 9 9 9 10 10 11 12
16 16 16 17 15 16 16 15 14 14 14 14 13 12 12 11 11 11 11 11 11 10 10 10 9 9 9 10 10 11 12 13
15 16 16 17 17 16 16 15 15 14 14 14 14 13 13 13 12 12 11 11 11 11 11 10 10 9 10 11 11 12 13 13
14 15 16 17 16 16 16 16 15 15 15 15 15 15 14 14 14 13 13 13 12 12 12 12 11 10 11 12 13 14 14 14
14 15 16 17 16 16 16 16 16 15 15 15 15 15 15 15 15 15 15 14 14 14 13 14 13 11 11 13 14 14 15 14
15 15 16 17 16 16 16 16 15 15 15 16 16 15 15 15 16 15 15 16 17 16 16 16 15 13 11 12 14 15 15 15
15 16 17 17 16 17 17 16 17 17 17 18 19 16 16 18 19 18 18 18 19 19 18 18 17 14 12 11 12 13 15 16
15 18 19 18 18 18 18 19 20 20 20 20 21 19 18 18 19 19 20 19 19 18 19 18 18 17 13 12 11 12 16 16
19 19 18 20 18 19 20 19 19 19 20 20 19 20 22 19 18 19 19 19 18 18 18 19 19 19 18 17 17 14 15 14
18 18 17 18 18 20 21 20 19 19 19 19 19 19 19 19 18 18 18 18 19 18 18 19 19 18 15 16 18 18 16 19
18 19 17 18 18 18 19 19 19 19 19 18 18 19 19 19 19 15 15 14 14 13 17 19 15 13 13 13 13 13 13 16
16 17 18 17 17 18 19 18 18 17 18 19 19 19 19 20 20 19 19 14 13 13 12 12 14 13 12 12 12 12 13 18
16 16 17 17 15 17 17 17 17 17 19 18 18 18 18 18 18 19 20 19 19 16 13 12 12 12 12 12 12 14 13 15
17 16 16 16 15 17 17 17 17 17 18 19 20 20 19 19 20 20 20 20 20 23 19 18 12 12 12 12 14 14 15 14